START_TIME,STEP,MOV.,M15,t_acc.,M20,t_acc.
1989-08-24T03:00:44.830 ,4,0,0.,24.0,0.,24.0
1989-08-24T03:01:08.830 ,3,1,0.,24.0,0.,24.0
1989-08-24T03:01:32.830 ,3,0,0.,24.0,0.,24.0
1989-08-24T03:01:56.830 ,2,1,0.,24.0,0.,24.0
1989-08-24T03:02:20.830 ,2,0,0.,24.0,0.,24.0
1989-08-24T03:02:44.830 ,1,1,0.,24.0,0.,24.0
1989-08-24T03:03:08.830 ,1,0,0.,24.0,0.,24.0
1989-08-24T03:03:32.830 ,0,1,0.,24.0,0.,24.0
1989-08-24T03:03:56.830 ,0,0,0.,24.0,0.,24.0
1989-08-24T03:04:20.830 ,0,1,0.,24.0,0.,24.0
1989-08-24T03:04:44.830 ,0,0,0.,24.0,0.,24.0
1989-08-24T03:05:08.830 ,1,1,0.,24.0,0.,24.0
1989-08-24T03:05:32.830 ,1,0,0.,24.0,0.,24.0
1989-08-24T03:05:56.830 ,2,1,0.,24.0,0.,24.0
1989-08-24T03:06:20.830 ,2,0,0.,24.0,0.,24.0
1989-08-24T03:06:44.830 ,3,1,0.,24.0,0.,24.0
1989-08-24T03:07:08.830 ,3,0,0.,24.0,0.,24.0
1989-08-24T03:07:32.830 ,4,1,0.,24.0,0.,24.0
1989-08-24T03:07:56.830 ,4,0,0.,24.0,0.,24.0
1989-08-24T03:08:20.830 ,5,1,0.,24.0,0.,24.0
1989-08-24T03:08:44.830 ,5,0,0.,24.0,0.,24.0
1989-08-24T03:09:08.830 ,6,1,0.,24.0,0.,24.0
1989-08-24T03:09:32.830 ,6,0,0.,24.0,0.,24.0
1989-08-24T03:09:56.830 ,7,1,0.,24.0,0.,24.0
1989-08-24T03:10:20.830 ,7,0,0.,24.0,0.,24.0
1989-08-24T03:10:44.830 ,7,1,0.,24.0,0.,24.0
1989-08-24T03:11:08.830 ,7,0,0.,24.0,0.,24.0
1989-08-24T03:11:32.830 ,6,1,0.,24.0,0.,24.0
1989-08-24T03:11:56.830 ,6,0,0.,24.0,0.,24.0
1989-08-24T03:12:20.830 ,5,1,0.,24.0,0.,24.0
1989-08-24T03:12:44.830 ,5,0,0.,24.0,0.,24.0
1989-08-24T03:13:08.830 ,4,1,0.,24.0,0.,24.0
1989-08-24T03:13:32.830 ,4,0,0.,24.0,0.,24.0
1989-08-24T03:13:56.830 ,3,1,0.,24.0,0.,24.0
1989-08-24T03:14:20.830 ,3,0,0.,24.0,0.,24.0
1989-08-24T03:14:44.830 ,2,1,0.,24.0,0.,24.0
1989-08-24T03:15:08.830 ,2,0,0.,24.0,0.,24.0
1989-08-24T03:15:32.830 ,1,1,0.,24.0,0.,24.0
1989-08-24T03:15:56.830 ,1,0,0.,24.0,0.,24.0
1989-08-24T03:16:20.830 ,0,1,0.,24.0,0.,24.0
1989-08-24T03:16:44.830 ,0,0,0.,24.0,0.,24.0
1989-08-24T03:17:08.830 ,0,1,0.,24.0,0.,24.0
1989-08-24T03:17:32.830 ,0,0,0.,24.0,0.,24.0
1989-08-24T03:17:56.830 ,1,1,0.,24.0,0.,24.0
1989-08-24T03:18:20.830 ,1,0,0.,24.0,0.,24.0
1989-08-24T03:18:44.830 ,2,1,0.,24.0,0.,24.0
1989-08-24T03:19:08.830 ,2,0,0.,24.0,0.,24.0
1989-08-24T03:19:32.830 ,3,1,0.,24.0,0.,24.0
1989-08-24T03:19:56.830 ,3,0,0.,24.0,0.,24.0
1989-08-24T03:20:20.830 ,4,1,0.,24.0,0.,24.0
1989-08-24T03:20:44.830 ,4,0,0.,24.0,0.,24.0
1989-08-24T03:21:08.830 ,5,1,0.,24.0,0.,24.0
1989-08-24T03:21:32.830 ,5,0,0.,24.0,0.,24.0
1989-08-24T03:21:56.830 ,6,1,0.,24.0,0.,24.0
1989-08-24T03:22:20.830 ,6,0,0.,24.0,0.,24.0
1989-08-24T03:22:44.830 ,7,1,0.,24.0,0.,24.0
1989-08-24T03:23:08.830 ,7,0,0.,24.0,0.,24.0
1989-08-24T03:23:32.830 ,7,1,0.,24.0,0.,24.0
1989-08-24T03:23:56.830 ,7,0,0.,24.0,0.,24.0
1989-08-24T03:24:20.830 ,6,1,0.,24.0,0.,24.0
1989-08-24T03:24:44.830 ,6,0,0.,24.0,0.,24.0
1989-08-24T03:25:08.830 ,5,1,0.,24.0,0.,24.0
1989-08-24T03:25:32.830 ,5,0,0.,24.0,0.,24.0
1989-08-24T03:25:56.830 ,4,1,0.,24.0,0.,24.0
1989-08-24T03:26:20.830 ,4,0,0.,24.0,0.,24.0
1989-08-24T03:26:44.830 ,3,1,0.,24.0,0.,24.0
1989-08-24T03:27:08.830 ,3,0,0.,24.0,0.,24.0
1989-08-24T03:27:32.830 ,2,1,0.,24.0,0.,24.0
1989-08-24T03:27:56.830 ,2,0,0.,24.0,0.,24.0
1989-08-24T03:28:20.830 ,1,1,0.,24.0,0.,24.0
1989-08-24T03:28:44.830 ,1,0,0.,24.0,0.,24.0
1989-08-24T03:29:08.830 ,0,1,0.,24.0,0.,24.0
1989-08-24T03:29:32.830 ,0,0,0.,24.0,0.,24.0
1989-08-24T03:29:56.830 ,0,1,0.,24.0,0.,24.0
1989-08-24T03:30:20.830 ,0,0,0.,24.0,0.,24.0
1989-08-24T03:30:44.830 ,1,1,0.,24.0,0.,24.0
1989-08-24T03:31:08.830 ,1,0,0.,24.0,0.,24.0
1989-08-24T03:31:32.830 ,2,1,0.,24.0,0.,24.0
1989-08-24T03:31:56.830 ,2,0,0.,24.0,0.,24.0
1989-08-24T03:32:20.830 ,3,1,0.,24.0,0.,24.0
1989-08-24T03:32:44.830 ,3,0,0.,24.0,0.,24.0
1989-08-24T03:33:08.830 ,4,1,0.,24.0,0.,24.0
1989-08-24T03:33:32.830 ,4,0,0.,24.0,0.,24.0
1989-08-24T03:33:56.830 ,5,1,0.,24.0,0.,24.0
1989-08-24T03:34:20.820 ,5,0,0.,24.0,0.,24.0
1989-08-24T03:34:44.820 ,6,1,0.,24.0,0.,24.0
1989-08-24T03:35:08.820 ,6,0,0.,24.0,0.,24.0
1989-08-24T03:35:32.820 ,7,1,0.,24.0,0.,24.0
1989-08-24T03:35:56.820 ,7,0,0.,24.0,0.,24.0
1989-08-24T03:36:20.820 ,7,1,0.,24.0,0.,24.0
1989-08-24T03:36:44.820 ,7,0,0.,24.0,0.,24.0
1989-08-24T03:37:08.820 ,6,1,0.,24.0,0.,24.0
1989-08-24T03:37:32.820 ,6,0,0.,24.0,0.,24.0
1989-08-24T03:37:56.820 ,5,1,0.,24.0,0.,24.0
1989-08-24T03:38:20.820 ,5,0,0.,24.0,0.,24.0
1989-08-24T03:38:44.820 ,4,1,0.,24.0,0.,24.0
1989-08-24T03:39:08.820 ,4,0,0.,24.0,0.,24.0
1989-08-24T03:39:32.820 ,3,1,0.,24.0,0.,24.0
1989-08-24T03:39:56.820 ,3,0,0.,24.0,0.,24.0
1989-08-24T03:40:20.820 ,2,1,0.,24.0,0.,24.0
1989-08-24T03:40:44.820 ,2,0,0.,24.0,0.,24.0
1989-08-24T03:41:08.820 ,1,1,0.,24.0,0.,24.0
1989-08-24T03:41:32.820 ,1,0,0.,24.0,0.,24.0
1989-08-24T03:41:56.820 ,0,1,0.,24.0,0.,24.0
1989-08-24T03:42:20.820 ,0,0,0.,24.0,0.,24.0
1989-08-24T03:42:44.820 ,0,1,0.,24.0,0.,24.0
1989-08-24T03:43:08.820 ,0,0,0.,24.0,0.,24.0
1989-08-24T03:43:32.820 ,1,1,0.,24.0,0.,24.0
1989-08-24T03:43:56.820 ,1,0,0.,24.0,0.,24.0
1989-08-24T03:44:20.820 ,0,0,,0,,0
1989-08-24T03:44:44.820 ,0,0,,0,,0
1989-08-24T03:44:26.220 ,0,0,,0,,0
1989-08-24T03:44:44.820 ,0,0,,0,,0
1989-08-24T03:44:26.220 ,0,0,,0,,0
1989-08-24T03:44:44.820 ,0,0,,0,,0
1989-08-24T03:44:26.820 ,2,1,0.,24.0,0.,24.0
1989-08-24T03:44:44.820 ,2,0,0.,24.0,0.,24.0
1989-08-24T03:45:08.820 ,3,1,0.,24.0,0.,24.0
1989-08-24T03:45:32.820 ,3,0,0.,24.0,0.,24.0
1989-08-24T03:45:56.820 ,4,1,0.,24.0,0.,24.0
1989-08-24T03:46:20.820 ,4,0,0.,24.0,0.,24.0
1989-08-24T03:46:44.820 ,5,1,0.,24.0,0.,24.0
1989-08-24T03:47:08.820 ,5,0,0.,24.0,0.,24.0
1989-08-24T03:47:32.820 ,6,1,0.,24.0,0.,24.0
1989-08-24T03:47:56.820 ,6,0,0.,24.0,0.,24.0
1989-08-24T03:48:20.820 ,7,1,0.,24.0,0.,24.0
1989-08-24T03:48:44.820 ,7,0,0.,24.0,0.,24.0
1989-08-24T03:49:08.820 ,7,1,0.,24.0,0.,24.0
1989-08-24T03:49:32.820 ,7,0,0.,24.0,0.,24.0
1989-08-24T03:49:56.820 ,6,1,0.,24.0,0.,24.0
1989-08-24T03:50:20.820 ,6,0,0.,24.0,0.,24.0
1989-08-24T03:50:44.820 ,5,1,0.,24.0,0.,24.0
1989-08-24T03:51:08.820 ,5,0,0.,24.0,0.,24.0
1989-08-24T03:51:32.820 ,4,1,0.,24.0,0.,24.0
1989-08-24T03:51:56.820 ,4,0,0.,24.0,0.,24.0
1989-08-24T03:52:20.820 ,3,1,0.,24.0,0.,24.0
1989-08-24T03:52:44.820 ,3,0,0.,24.0,0.,24.0
1989-08-24T03:53:08.820 ,2,1,0.,24.0,0.,24.0
1989-08-24T03:53:32.820 ,2,0,0.,24.0,0.,24.0
1989-08-24T03:53:56.820 ,1,1,0.,24.0,0.,24.0
1989-08-24T03:54:20.820 ,1,0,0.,24.0,0.,24.0
1989-08-24T03:54:44.820 ,0,1,0.,24.0,0.,24.0
1989-08-24T03:55:08.820 ,0,0,0.,24.0,0.,24.0
1989-08-24T03:55:32.820 ,0,1,0.,24.0,0.,24.0
1989-08-24T03:55:56.820 ,0,0,0.,24.0,0.,24.0
1989-08-24T03:56:20.820 ,1,1,0.,24.0,0.,24.0
1989-08-24T03:56:44.820 ,1,0,0.,24.0,0.,24.0
1989-08-24T03:57:08.820 ,2,1,0.,24.0,0.,24.0
1989-08-24T03:57:32.820 ,2,0,0.,24.0,0.,24.0
1989-08-24T03:57:56.820 ,3,1,0.,24.0,0.,24.0
1989-08-24T03:58:20.820 ,3,0,0.,24.0,0.,24.0
1989-08-24T03:58:44.820 ,4,1,0.,24.0,0.,24.0
1989-08-24T03:59:08.820 ,4,0,0.,24.0,0.,24.0
1989-08-24T03:59:32.820 ,5,1,0.,24.0,0.,24.0
1989-08-24T03:59:56.820 ,5,0,0.,24.0,0.,24.0
1989-08-24T04:00:20.820 ,6,1,0.,24.0,0.,24.0
1989-08-24T04:00:44.820 ,6,0,0.,24.0,0.,24.0
1989-08-24T04:01:08.820 ,7,1,0.,24.0,0.,24.0
1989-08-24T04:01:32.820 ,7,0,0.,24.0,0.,24.0
1989-08-24T04:01:56.820 ,7,1,0.,24.0,0.,24.0
1989-08-24T04:02:20.820 ,7,0,0.,24.0,0.,24.0
1989-08-24T04:02:44.820 ,6,1,0.,24.0,0.,24.0
1989-08-24T04:03:08.820 ,6,0,0.,24.0,0.,24.0
1989-08-24T04:03:32.820 ,5,1,0.,24.0,0.,24.0
1989-08-24T04:03:56.820 ,5,0,0.,24.0,0.,24.0
1989-08-24T04:04:20.820 ,4,1,0.,24.0,0.,24.0
1989-08-24T04:04:44.820 ,4,0,0.,24.0,0.,24.0
1989-08-24T04:05:08.820 ,3,1,0.,24.0,0.,24.0
1989-08-24T04:05:32.820 ,3,0,0.,24.0,0.,24.0
1989-08-24T04:05:56.820 ,2,1,0.,24.0,0.,24.0
1989-08-24T04:06:20.820 ,2,0,0.,24.0,0.,24.0
1989-08-24T04:06:44.820 ,1,1,0.,24.0,0.,24.0
1989-08-24T04:07:08.820 ,1,0,0.,24.0,0.,24.0
1989-08-24T04:07:32.820 ,0,1,0.,24.0,0.,24.0
1989-08-24T04:07:56.820 ,0,0,0.,24.0,0.,24.0
1989-08-24T04:08:20.820 ,0,1,0.,24.0,0.,24.0
1989-08-24T04:08:44.820 ,0,0,0.,24.0,0.,24.0
1989-08-24T04:09:08.820 ,1,1,0.,24.0,0.,24.0
1989-08-24T04:09:32.820 ,1,0,0.,24.0,0.,24.0
1989-08-24T04:09:56.820 ,2,1,0.,24.0,0.,24.0
1989-08-24T04:10:20.820 ,2,0,0.,24.0,0.,24.0
1989-08-24T04:10:44.820 ,3,1,0.,24.0,0.,24.0
1989-08-24T04:11:08.820 ,3,0,0.,24.0,0.,24.0
1989-08-24T04:11:32.820 ,4,1,0.,24.0,0.,24.0
1989-08-24T04:11:56.820 ,4,0,0.,24.0,0.,24.0
1989-08-24T04:12:20.820 ,5,1,0.,24.0,0.,24.0
1989-08-24T04:12:44.820 ,5,0,0.,24.0,0.,24.0
1989-08-24T04:13:08.820 ,6,1,0.,24.0,0.,24.0
1989-08-24T04:13:32.820 ,6,0,0.,24.0,0.,24.0
1989-08-24T04:13:56.820 ,7,1,0.,24.0,0.,24.0
1989-08-24T04:14:20.820 ,7,0,0.,24.0,0.,24.0
1989-08-24T04:14:44.820 ,7,1,0.,24.0,0.,24.0
1989-08-24T04:15:08.820 ,7,0,0.,24.0,0.,24.0
1989-08-24T04:15:32.820 ,6,1,0.,24.0,0.,24.0
1989-08-24T04:15:56.820 ,6,0,0.,24.0,0.,24.0
1989-08-24T04:16:20.820 ,5,1,0.,24.0,0.,24.0
1989-08-24T04:16:44.820 ,5,0,0.,24.0,0.,24.0
1989-08-24T04:17:08.820 ,4,1,0.,24.0,0.,24.0
1989-08-24T04:17:32.820 ,4,0,0.,24.0,0.,24.0
1989-08-24T04:17:56.820 ,3,1,0.,24.0,0.,24.0
1989-08-24T04:18:20.820 ,3,0,0.,24.0,0.,24.0
1989-08-24T04:18:44.820 ,2,1,0.,24.0,0.,24.0
1989-08-24T04:19:08.820 ,2,0,0.,24.0,0.,24.0
1989-08-24T04:19:32.820 ,1,1,0.,24.0,0.,24.0
1989-08-24T04:19:56.820 ,1,0,0.,24.0,0.,24.0
1989-08-24T04:20:20.820 ,0,1,0.,24.0,0.,24.0
1989-08-24T04:20:44.820 ,0,0,0.,24.0,0.,24.0
1989-08-24T04:21:08.820 ,0,1,0.,24.0,0.,24.0
1989-08-24T04:21:32.820 ,0,0,0.,24.0,0.,24.0
1989-08-24T04:21:56.820 ,1,1,0.,24.0,0.,24.0
1989-08-24T04:22:20.820 ,1,0,0.,24.0,0.,24.0
1989-08-24T04:22:44.820 ,2,1,0.,24.0,0.,24.0
1989-08-24T04:23:08.820 ,2,0,0.,24.0,0.,24.0
1989-08-24T04:23:32.820 ,3,1,0.,24.0,0.,24.0
1989-08-24T04:23:56.820 ,3,0,0.,24.0,0.,24.0
1989-08-24T04:24:20.820 ,4,1,0.,24.0,0.,24.0
1989-08-24T04:24:44.820 ,4,0,0.,24.0,0.,24.0
1989-08-24T04:25:08.820 ,5,1,0.,24.0,0.,24.0
1989-08-24T04:25:32.820 ,5,0,0.,24.0,0.,24.0
1989-08-24T04:25:56.820 ,6,1,0.,24.0,0.,24.0
1989-08-24T04:26:20.820 ,6,0,0.,24.0,0.,24.0
1989-08-24T04:26:44.820 ,7,1,0.,24.0,0.,24.0
1989-08-24T04:27:08.820 ,7,0,0.,24.0,0.,24.0
1989-08-24T04:27:32.820 ,7,1,0.,24.0,0.,24.0
1989-08-24T04:27:56.820 ,7,0,0.,24.0,0.,24.0
1989-08-24T04:28:20.820 ,6,1,0.,24.0,0.,24.0
1989-08-24T04:28:44.820 ,6,0,0.,24.0,0.,24.0
1989-08-24T04:29:08.820 ,5,1,0.,24.0,0.,24.0
1989-08-24T04:29:32.820 ,5,0,0.,24.0,0.,24.0
1989-08-24T04:29:56.820 ,4,1,0.,24.0,0.,24.0
1989-08-24T04:30:20.820 ,4,0,0.,24.0,0.,24.0
1989-08-24T04:30:44.820 ,3,1,0.,24.0,0.,24.0
1989-08-24T04:31:08.820 ,3,0,0.,24.0,0.,24.0
1989-08-24T04:31:32.820 ,2,1,0.,24.0,0.,24.0
1989-08-24T04:31:56.820 ,2,0,0.,24.0,0.,24.0
1989-08-24T04:32:20.820 ,1,1,0.,24.0,0.,24.0
1989-08-24T04:32:44.820 ,1,0,0.,24.0,0.,24.0
1989-08-24T04:33:08.820 ,0,1,0.,24.0,0.,24.0
1989-08-24T04:33:32.820 ,0,0,0.,24.0,0.,24.0
1989-08-24T04:33:56.820 ,0,1,0.,24.0,0.,24.0
1989-08-24T04:34:20.820 ,0,0,0.,24.0,0.,24.0
1989-08-24T04:34:44.820 ,1,1,0.,24.0,0.,24.0
1989-08-24T04:35:08.820 ,1,0,0.,24.0,0.,24.0
1989-08-24T04:35:32.820 ,2,1,0.,24.0,0.,24.0
1989-08-24T04:35:56.820 ,2,0,0.,24.0,0.,24.0
1989-08-24T04:36:20.820 ,3,1,0.,24.0,0.,24.0
1989-08-24T04:36:44.820 ,3,0,0.,24.0,0.,24.0
1989-08-24T04:37:08.820 ,4,1,0.,24.0,0.,24.0
1989-08-24T04:37:32.820 ,4,0,0.,24.0,0.,24.0
1989-08-24T04:37:56.820 ,5,1,0.,24.0,0.,24.0
1989-08-24T04:38:20.820 ,5,0,0.,24.0,0.,24.0
1989-08-24T04:38:44.820 ,6,1,0.,24.0,0.,24.0
1989-08-24T04:39:08.820 ,6,0,0.,24.0,0.,24.0
1989-08-24T04:39:32.820 ,7,1,0.,24.0,0.,24.0
1989-08-24T04:39:56.820 ,7,0,0.,24.0,0.,24.0
1989-08-24T04:40:20.820 ,7,1,0.,24.0,0.,24.0
1989-08-24T04:40:44.820 ,7,0,0.,24.0,0.,24.0
1989-08-24T04:41:08.820 ,6,1,0.,24.0,0.,24.0
1989-08-24T04:41:32.820 ,6,0,0.,24.0,0.,24.0
1989-08-24T04:41:56.820 ,5,1,0.,24.0,0.,24.0
1989-08-24T04:42:20.820 ,5,0,0.,24.0,0.,24.0
1989-08-24T04:42:44.820 ,4,1,0.,24.0,0.,24.0
1989-08-24T04:43:08.820 ,4,0,0.,24.0,0.,24.0
1989-08-24T04:43:32.820 ,3,1,0.,24.0,0.,24.0
1989-08-24T04:43:56.820 ,3,0,0.,24.0,0.,24.0
1989-08-24T04:44:20.820 ,2,1,0.,24.0,0.,24.0
1989-08-24T04:44:44.820 ,2,0,0.,24.0,0.,24.0
1989-08-24T04:45:08.820 ,1,1,0.,24.0,0.,24.0
1989-08-24T04:45:32.820 ,1,0,0.,24.0,0.,24.0
1989-08-24T04:45:56.820 ,0,1,0.,24.0,0.,24.0
1989-08-24T04:46:20.820 ,0,0,0.,24.0,0.,24.0
1989-08-24T04:46:44.820 ,0,1,0.,24.0,0.,24.0
1989-08-24T04:47:08.820 ,0,0,0.,24.0,0.,24.0
1989-08-24T04:47:32.820 ,1,1,0.,24.0,0.,24.0
1989-08-24T04:47:56.820 ,1,0,0.,24.0,0.,24.0
1989-08-24T04:48:20.820 ,2,1,0.,24.0,0.,24.0
1989-08-24T04:48:44.820 ,2,0,0.,24.0,0.,24.0
1989-08-24T04:49:08.820 ,3,1,0.,24.0,0.,24.0
1989-08-24T04:49:32.820 ,3,0,0.,24.0,0.,24.0
1989-08-24T04:49:56.820 ,4,1,0.,24.0,0.,24.0
1989-08-24T04:50:20.820 ,4,0,0.,24.0,0.,24.0
1989-08-24T04:50:44.820 ,5,1,0.,24.0,0.,24.0
1989-08-24T04:51:08.820 ,5,0,0.,24.0,0.,24.0
1989-08-24T04:51:32.820 ,6,1,0.,24.0,0.,24.0
1989-08-24T04:51:56.820 ,6,0,0.,24.0,0.,24.0
1989-08-24T04:52:20.820 ,7,1,0.,24.0,0.,24.0
1989-08-24T04:52:44.820 ,7,0,0.,24.0,0.,24.0
1989-08-24T04:53:08.820 ,7,1,0.,24.0,0.,24.0
1989-08-24T04:53:32.820 ,7,0,0.,24.0,0.,24.0
1989-08-24T04:53:56.820 ,6,1,0.,24.0,0.,24.0
1989-08-24T04:54:20.820 ,6,0,0.,24.0,0.,24.0
1989-08-24T04:54:44.820 ,5,1,0.,24.0,0.,24.0
1989-08-24T04:55:08.820 ,5,0,0.,24.0,0.,24.0
1989-08-24T04:55:32.820 ,4,1,0.,24.0,0.,24.0
1989-08-24T04:55:56.820 ,4,0,0.,24.0,0.,24.0
1989-08-24T04:56:20.820 ,3,1,0.,24.0,0.,24.0
1989-08-24T04:56:44.820 ,3,0,0.,24.0,0.,24.0
1989-08-24T04:57:08.820 ,2,1,0.,24.0,0.,24.0
1989-08-24T04:57:32.820 ,2,0,0.,24.0,0.,24.0
1989-08-24T04:57:56.820 ,1,1,0.,24.0,0.,24.0
1989-08-24T04:58:20.820 ,1,0,0.,24.0,0.,24.0
1989-08-24T04:58:44.820 ,0,1,0.,24.0,0.,24.0
1989-08-24T04:59:08.820 ,0,0,0.,24.0,0.,24.0
1989-08-24T04:59:32.820 ,0,1,0.,24.0,0.,24.0
1989-08-24T04:59:56.820 ,0,0,0.,24.0,0.,24.0
1989-08-24T05:00:20.820 ,1,1,0.,24.0,0.,24.0
1989-08-24T05:00:44.820 ,1,0,0.,24.0,0.,24.0
1989-08-24T05:01:08.820 ,2,1,0.,24.0,0.,24.0
1989-08-24T05:01:32.820 ,2,0,0.,24.0,0.,24.0
1989-08-24T05:01:56.820 ,3,1,0.,24.0,0.,24.0
1989-08-24T05:02:20.820 ,3,0,0.,24.0,0.,24.0
1989-08-24T05:02:44.820 ,4,1,0.,24.0,0.,24.0
1989-08-24T05:03:08.820 ,4,0,0.,24.0,0.,24.0
1989-08-24T05:03:32.820 ,5,1,0.,24.0,0.,24.0
1989-08-24T05:03:56.820 ,5,0,0.,24.0,0.,24.0
1989-08-24T05:04:20.820 ,6,1,0.,24.0,0.,24.0
1989-08-24T05:04:44.820 ,6,0,0.,24.0,0.,24.0
1989-08-24T05:05:08.820 ,7,1,0.,24.0,0.,24.0
1989-08-24T05:05:32.820 ,7,0,0.,24.0,0.,24.0
1989-08-24T05:05:56.820 ,7,1,0.,24.0,0.,24.0
1989-08-24T05:06:20.820 ,7,0,0.,24.0,0.,24.0
1989-08-24T05:06:44.820 ,6,1,0.,24.0,0.,24.0
1989-08-24T05:07:08.820 ,6,0,0.,24.0,0.,24.0
1989-08-24T05:07:32.820 ,5,1,0.,24.0,0.,24.0
1989-08-24T05:07:56.820 ,5,0,0.,24.0,0.,24.0
1989-08-24T05:08:20.820 ,4,1,0.,24.0,0.,24.0
1989-08-24T05:08:44.820 ,4,0,0.,24.0,0.,24.0
1989-08-24T05:09:08.820 ,3,1,0.,24.0,0.,24.0
1989-08-24T05:09:32.820 ,3,0,0.,24.0,0.,24.0
1989-08-24T05:09:56.820 ,2,1,0.,24.0,0.,24.0
1989-08-24T05:10:20.820 ,2,0,0.,24.0,0.,24.0
1989-08-24T05:10:44.820 ,1,1,0.,24.0,0.,24.0
1989-08-24T05:11:08.820 ,1,0,0.,24.0,0.,24.0
1989-08-24T05:11:32.820 ,0,1,0.,24.0,0.,24.0
1989-08-24T05:11:56.820 ,0,0,0.,24.0,0.,24.0
1989-08-24T05:12:20.820 ,0,1,0.,24.0,0.,24.0
1989-08-24T05:12:44.820 ,0,0,0.,24.0,0.,24.0
1989-08-24T05:13:08.820 ,1,1,0.,24.0,0.,24.0
1989-08-24T05:13:32.820 ,1,0,0.,24.0,0.,24.0
1989-08-24T05:13:56.820 ,2,1,0.,24.0,0.,24.0
1989-08-24T05:14:20.820 ,2,0,0.,24.0,0.,24.0
1989-08-24T05:14:44.820 ,3,1,0.,24.0,0.,24.0
1989-08-24T05:15:08.820 ,3,0,0.,24.0,0.,24.0
1989-08-24T05:15:32.820 ,4,1,0.,24.0,0.,24.0
1989-08-24T05:15:56.820 ,4,0,0.,24.0,0.,24.0
1989-08-24T05:16:20.820 ,5,1,0.,24.0,0.,24.0
1989-08-24T05:16:44.820 ,5,0,0.,24.0,0.,24.0
1989-08-24T05:17:08.820 ,6,1,0.,24.0,0.,24.0
1989-08-24T05:17:32.820 ,6,0,0.,24.0,0.,24.0
1989-08-24T05:17:56.820 ,7,1,0.,24.0,0.,24.0
1989-08-24T05:18:20.820 ,7,0,0.,24.0,0.,24.0
1989-08-24T05:18:44.820 ,7,1,0.,24.0,0.,24.0
1989-08-24T05:19:08.820 ,7,0,0.,24.0,0.,24.0
1989-08-24T05:19:32.820 ,6,1,0.,24.0,0.,24.0
1989-08-24T05:19:56.820 ,6,0,0.,24.0,0.,24.0
1989-08-24T05:20:20.820 ,5,1,0.,24.0,0.,24.0
1989-08-24T05:20:44.820 ,5,0,0.,24.0,0.,24.0
1989-08-24T05:21:08.820 ,4,1,0.,24.0,0.,24.0
1989-08-24T05:21:32.820 ,4,0,0.,24.0,0.,24.0
1989-08-24T05:21:56.820 ,3,1,0.,24.0,0.,24.0
1989-08-24T05:22:20.820 ,3,0,0.,24.0,0.,24.0
1989-08-24T05:22:44.820 ,2,1,0.,24.0,0.,24.0
1989-08-24T05:23:08.820 ,2,0,0.,24.0,0.,24.0
1989-08-24T05:23:32.820 ,1,1,0.,24.0,0.,24.0
1989-08-24T05:23:56.820 ,1,0,0.,24.0,0.,24.0
1989-08-24T05:24:20.820 ,0,1,0.,24.0,0.,24.0
1989-08-24T05:24:44.820 ,0,0,0.,24.0,0.,24.0
1989-08-24T05:25:08.820 ,0,1,0.,24.0,0.,24.0
1989-08-24T05:25:32.820 ,0,0,0.,24.0,0.,24.0
1989-08-24T05:25:56.820 ,1,1,0.,24.0,0.,24.0
1989-08-24T05:26:20.820 ,1,0,0.,24.0,0.,24.0
1989-08-24T05:26:44.820 ,2,1,0.,24.0,0.,24.0
1989-08-24T05:27:08.820 ,2,0,0.,24.0,0.,24.0
1989-08-24T05:27:32.820 ,3,1,0.,24.0,0.,24.0
1989-08-24T05:27:56.820 ,3,0,0.,24.0,0.,24.0
1989-08-24T05:28:20.820 ,4,1,0.,24.0,0.,24.0
1989-08-24T05:28:44.820 ,4,0,0.,24.0,0.,24.0
1989-08-24T05:29:08.820 ,5,1,0.,24.0,0.,24.0
1989-08-24T05:29:32.820 ,5,0,0.,24.0,0.,24.0
1989-08-24T05:29:56.820 ,6,1,0.,24.0,0.,24.0
1989-08-24T05:30:20.820 ,6,0,0.,24.0,0.,24.0
1989-08-24T05:30:44.820 ,7,1,0.,24.0,0.,24.0
1989-08-24T05:31:08.820 ,7,0,0.,24.0,0.,24.0
1989-08-24T05:31:32.820 ,7,1,0.,24.0,0.,24.0
1989-08-24T05:31:56.820 ,7,0,0.,24.0,0.,24.0
1989-08-24T05:32:20.820 ,6,1,0.,24.0,0.,24.0
1989-08-24T05:32:44.820 ,6,0,0.,24.0,0.,24.0
1989-08-24T05:33:08.820 ,5,1,0.,24.0,0.,24.0
1989-08-24T05:33:32.820 ,5,0,0.,24.0,0.,24.0
1989-08-24T05:33:56.820 ,4,1,0.,24.0,0.,24.0
1989-08-24T05:34:20.810 ,4,0,0.,24.0,0.,24.0
1989-08-24T05:34:44.810 ,3,1,0.,24.0,0.,24.0
1989-08-24T05:35:08.810 ,3,0,0.,24.0,0.,24.0
1989-08-24T05:35:32.810 ,2,1,0.,24.0,0.,24.0
1989-08-24T05:35:56.810 ,2,0,0.,24.0,0.,24.0
1989-08-24T05:36:20.810 ,1,1,0.,24.0,0.,24.0
1989-08-24T05:36:44.810 ,1,0,0.,24.0,0.,24.0
1989-08-24T05:37:08.810 ,0,1,0.,24.0,0.,24.0
1989-08-24T05:37:32.810 ,0,0,0.,24.0,0.,24.0
1989-08-24T05:37:56.810 ,0,1,0.,24.0,0.,24.0
1989-08-24T05:38:20.810 ,0,0,0.,24.0,0.,24.0
1989-08-24T05:38:44.810 ,1,1,0.,24.0,0.,24.0
1989-08-24T05:39:08.810 ,1,0,0.,24.0,0.,24.0
1989-08-24T05:39:32.810 ,2,1,0.,24.0,0.,24.0
1989-08-24T05:39:56.810 ,2,0,0.,24.0,0.,24.0
1989-08-24T05:40:20.810 ,3,1,0.,24.0,0.,24.0
1989-08-24T05:40:44.810 ,3,0,0.,24.0,0.,24.0
1989-08-24T05:41:08.810 ,4,1,0.,24.0,0.,24.0
1989-08-24T05:41:32.810 ,4,0,0.,24.0,0.,24.0
1989-08-24T05:41:56.810 ,5,1,0.,24.0,0.,24.0
1989-08-24T05:42:20.810 ,5,0,0.,24.0,0.,24.0
1989-08-24T05:42:44.810 ,6,1,0.,24.0,0.,24.0
1989-08-24T05:43:08.810 ,6,0,0.,24.0,0.,24.0
1989-08-24T05:43:32.810 ,7,1,0.,24.0,0.,24.0
1989-08-24T05:43:56.810 ,7,0,0.,24.0,0.,24.0
1989-08-24T05:44:20.810 ,7,1,0.,24.0,0.,24.0
1989-08-24T05:44:44.810 ,7,0,0.,24.0,0.,24.0
1989-08-24T05:45:08.810 ,6,1,0.,24.0,0.,24.0
1989-08-24T05:45:32.810 ,6,0,0.,24.0,0.,24.0
1989-08-24T05:45:56.810 ,5,1,0.,24.0,0.,24.0
1989-08-24T05:46:20.810 ,5,0,0.,24.0,0.,24.0
1989-08-24T05:46:44.810 ,4,1,0.,24.0,0.,24.0
1989-08-24T05:47:08.810 ,4,0,0.,24.0,0.,24.0
1989-08-24T05:47:32.810 ,3,1,0.,24.0,0.,24.0
1989-08-24T05:47:56.810 ,3,0,0.,24.0,0.,24.0
1989-08-24T05:48:20.810 ,0,0,,0,,0
1989-08-24T05:48:44.810 ,0,0,0.,24.0,0.,24.0
1989-08-24T05:49:08.810 ,1,1,0.,24.0,0.,24.0
1989-08-24T05:49:32.810 ,1,0,0.,24.0,0.,24.0
1989-08-24T05:49:56.810 ,0,1,0.,24.0,0.,24.0
1989-08-24T05:50:20.810 ,0,0,0.,24.0,0.,24.0
1989-08-24T05:50:44.810 ,0,1,0.,24.0,0.,24.0
1989-08-24T05:51:08.810 ,0,0,0.,24.0,0.,24.0
1989-08-24T05:51:32.810 ,1,1,0.,24.0,0.,24.0
1989-08-24T05:51:56.810 ,1,0,0.,24.0,0.,24.0
1989-08-24T05:52:20.810 ,2,1,0.,24.0,0.,24.0
1989-08-24T05:52:44.810 ,2,0,0.,24.0,0.,24.0
1989-08-24T05:53:08.810 ,3,1,0.,24.0,0.,24.0
1989-08-24T05:53:32.810 ,3,0,0.,24.0,0.,24.0
1989-08-24T05:53:56.810 ,4,1,0.,24.0,0.,24.0
1989-08-24T05:54:20.810 ,4,0,0.,24.0,0.,24.0
1989-08-24T05:54:44.810 ,5,1,0.,24.0,0.,24.0
1989-08-24T05:55:08.810 ,5,0,0.,24.0,0.,24.0
1989-08-24T05:55:32.810 ,6,1,0.,24.0,0.,24.0
1989-08-24T05:55:56.810 ,6,0,0.,24.0,0.,24.0
1989-08-24T05:56:20.810 ,7,1,0.,24.0,0.,24.0
1989-08-24T05:56:44.810 ,7,0,0.,24.0,0.,24.0
1989-08-24T05:57:08.810 ,7,1,0.,24.0,0.,24.0
1989-08-24T05:57:32.810 ,7,0,0.,24.0,0.,24.0
1989-08-24T05:57:56.810 ,6,1,0.,24.0,0.,24.0
1989-08-24T05:58:20.810 ,6,0,0.,24.0,0.,24.0
1989-08-24T05:58:44.810 ,5,1,0.,24.0,0.,24.0
1989-08-24T05:59:08.810 ,5,0,0.,24.0,0.,24.0
1989-08-24T05:59:32.810 ,4,1,0.,24.0,0.,24.0
1989-08-24T05:59:56.810 ,4,0,0.,24.0,0.,24.0
1989-08-24T06:00:20.810 ,3,1,0.,24.0,0.,24.0
